This demonstration page uses our WeatherBlox Daily Observations layout. Learn more.

Left ArrowRight Arrow

38.89511, -77.03637

Hourly Observations for February 14, 2017

Temp ( °F °C ) Dew Point ( °F °C ) Humidity (%) Winds ( mph kmh ) Pressure ( in mb ) Visibility ( mi km ) Precip ( " mm )
12:52 am 00:52 Mostly Cloudy 34 1.1 20 -6.7 56 56 NW 5 7 30.08 1019 10 16 0.00 0.00
1:52 am 01:52 Mostly Cloudy 34 1.1 23 -5 64 64 Calm 30.07 1018 10 16 0.00 0.00
2:52 am 02:52 Mostly Cloudy 33 0.6 23 -5 66 66 SSW 5 7 30.06 1018 10 16 0.00 0.00
3:52 am 03:52 Cloudy 32 0 22 -5.6 66 66 SSW 5 7 30.04 1017 10 16 0.00 0.00
4:52 am 04:52 Cloudy 32 0 24 -4.4 73 73 SSW 3 6 30.04 1017 10 16 0.00 0.00
5:52 am 05:52 Cloudy 33 0.6 24 -4.4 70 70 SSW 5 7 30.03 1017 10 16 0.00 0.00
6:52 am 06:52 Mostly Cloudy 34 1.1 27 -2.8 76 76 SW 3 6 30.04 1017 10 16 0.00 0.00
7:52 am 07:52 Cloudy 35 1.7 27 -2.8 72 72 S 6 9 30.04 1017 10 16 0.00 0.00
8:52 am 08:52 Cloudy 37 2.8 27 -2.8 67 67 S 6 9 30.03 1017 10 16 0.00 0.00
9:52 am 09:52 Cloudy 39 3.9 24 -4.4 55 55 SSW 12 19 30.03 1017 10 16 0.00 0.00
10:52 am 10:52 Cloudy with Light Rain 42 5.6 29 -1.7 60 60 WSW 13 20 30.02 1017 10 16 0.00 0.03
11:52 am 11:52 Cloudy 42 5.6 31 -0.6 65 65 SW 13 20 29.97 1015 10 16 0.00 0.03
12:52 pm 12:52 Cloudy with Light Rain 42 5.6 35 1.7 76 76 SSW 17 28 29.93 1014 10 16 0.00 0.03
1:52 pm 13:52 Cloudy 42 5.6 34 1.1 73 73 S 7 11 29.89 1012 10 16 0.00 0.03
2:52 pm 14:52 Mostly Cloudy 44 6.7 32 0 63 63 S 7 11 29.85 1011 10 16 0.00 0.00
3:52 pm 15:52 Mostly Cloudy 45 7.2 32 0 61 61 S 3 6 29.83 1010 10 16 0.00 0.00
4:52 pm 16:52 Mostly Cloudy 45 7.2 31 -0.6 58 58 S 6 9 29.83 1010 10 16 0.00 0.00
5:52 pm 17:52 Mostly Cloudy 45 7.2 24 -4.4 44 44 SSW 8 13 29.83 1010 10 16 0.00 0.00
6:52 pm 18:52 Mostly Cloudy 44 6.7 25 -3.9 47 47 S 10 17 29.81 1010 10 16 0.00 0.00
7:52 pm 19:52 Mostly Cloudy 44 6.7 24 -4.4 45 45 SSW 10 17 29.80 1009 10 16 0.00 0.00
8:52 pm 20:52 Partly Cloudy 43 6.1 24 -4.4 47 47 SW 3 6 29.79 1009 10 16 0.00 0.00
9:52 pm 21:52 Mostly Cloudy 41 5 32 0 70 70 S 10 17 29.76 1008 10 16 0.00 0.00
10:52 pm 22:52 Mostly Cloudy 41 5 27 -2.8 57 57 S 3 6 29.74 1007 10 16 0.00 0.00
11:52 pm 23:52 Mostly Cloudy 40 4.4 31 -0.6 70 70 S 5 7 29.72 1006 10 16 0.00 0.00

Powered by AerisWeather